Regional Weather Roundup
Issued by NWS

Home | Current Version | Previous Version | Graphics & Text | Print | Product List | Glossary On
Versions: 1 2 3 4 5 6 7 8 9 10 11 12 13 14 15 16 17 18 19 20 21 22 23 24 25 26 27 28 29 30 31 32 33 34 35 36 37 38 39 40 41 42 43 44 45 46 47 48 49 50
235
ASUS45 KPSR 250510
RWRAZ

ARIZONA HOURLY REGIONAL WEATHER ROUNDUP
NATIONAL WEATHER SERVICE PHOENIX AZ
1000 PM MST FRI FEB 24 2017

NOTE: FAIR INDICATES FEW OR NO CLOUDS BELOW 12,000 FEET WITH NO
SIGNIFICANT WEATHER AND/OR OBSTRUCTIONS TO VISIBILITY.

AZZ001>003-036-250600-
NORTHWEST ARIZONA

CITY           SKY/WX    TMP DP  RH WIND       PRES   REMARKS
BULLHEAD CITY  CLEAR     50  25  37 NE5       30.15R
KINGMAN        CLEAR     31   6  35 E6        30.14R WCI  25
$$

AZZ004>008-015-016-018-250600-
NORTH CENTRAL ARIZONA

CITY           SKY/WX    TMP DP  RH WIND       PRES   REMARKS
GRAND CANYON   CLEAR     18  13  80 CALM      30.09R
WILLIAMS       CLEAR     25   9  50 S3        30.10R
PRESCOTT       CLEAR     34  15  46 S8        30.13R WCI  27
FLAGSTAFF      CLEAR     25  12  58 SW7       30.09R WCI  17
PAYSON         CLEAR     34  18  51 CALM      30.15R
PAGE           CLEAR     36  -1  21 W7        30.10R WCI  30
$$

AZZ009>014-017-250600-
NORTHEAST ARIZONA

CITY           SKY/WX    TMP DP  RH WIND       PRES   REMARKS
WINSLOW        CLEAR     33   9  36 W3        30.10R
SAINT JOHNS    CLEAR     31  13  47 NW6       30.09R WCI  25
WINDOW ROCK    CLEAR     24   4  42 E5        30.06R WCI  18
SHOW LOW       CLEAR     27  14  59 S8        30.12R WCI  18
$$

AZZ023-250600-
GREATER PHOENIX AREA

CITY           SKY/WX    TMP DP  RH WIND       PRES   REMARKS
PHOENIX        CLEAR     54  32  43 CALM      30.12R
BUCKEYE        CLEAR     45  36  70 E5        30.14R
LUKE AFB       CLEAR     49  34  56 CALM      30.12R
DEER VALLEY    CLEAR     48  30  49 N3        30.13R
SCOTTSDALE     CLEAR     51  27  39 CALM      30.14R
MESA-GATEWAY   CLEAR     46  30  53 E6        30.14R
$$

AZZ027-028-250600-
SOUTHWEST MARICOPA COUNTY AND PINAL COUNTY

CITY           SKY/WX    TMP DP  RH WIND       PRES   REMARKS
CASA GRANDE    NOT AVBL
$$

AZZ503-504-507>509-250600-
SOUTHEAST ARIZONA

CITY           SKY/WX    TMP DP  RH WIND       PRES   REMARKS
TUCSON         CLEAR     50  18  28 VRB3      30.16R
DAVIS-MONTHAN  CLEAR     47  18  31 W7        30.14R
NOGALES        CLEAR     39  16  39 CALM      30.14R
SIERRA VISTA   CLEAR     41  14  32 NW3       30.15R
DOUGLAS        CLEAR     40  13  33 NW9       30.14R WCI  34
SAFFORD        CLEAR     47  10  22 N10       30.10R
$$

AZZ020-021-025-026-031-250600-
SOUTHWEST ARIZONA

CITY           SKY/WX    TMP DP  RH WIND       PRES   REMARKS
YUMA           CLEAR     57  25  29 NE3       30.13R
$$

CAZ031-033-041-043-047-048-061-250600-
SOUTHERN CALIFORNIA

CITY           SKY/WX    TMP DP  RH WIND       PRES   REMARKS
DOWNTOWN L.A.  CLEAR     53  38  56 CALM      30.17R
L.A. AIRPORT   CLEAR     53  41  63 SW3       30.17R
SAN DIEGO      CLEAR     54  38  54 N3        30.19R
BURBANK        CLEAR     51  32  48 VRB3      30.15R
ONTARIO        CLEAR     48  34  58 W3        30.15S
RIVERSIDE      CLEAR     48  35  60 CALM      30.17R
PALM SPRINGS   CLEAR     55  34  45 N3        30.16R
EL CENTRO NAS  CLEAR     53  26  35 CALM      30.14S
IMPERIAL       CLEAR     54  31  41 CALM      30.12R
BLYTHE         CLEAR     51  39  63 NW5       30.14R
NEEDLES        CLEAR     51  29  42 W8        30.14R
$$

NVZ020-UTZ003-250600-
SOUTHERN NEVADA-UTAH

CITY           SKY/WX    TMP DP  RH WIND       PRES   REMARKS
LAS VEGAS      PTCLDY    46  12  25 E6        30.12R
SALT LAKE CITY PTCLDY    25  14  63 SE7       30.14S WCI  17
$$

NMZ009-TXZ055-250600-
NEW MEXICO-WEST TEXAS

CITY           SKY/WX    TMP DP  RH WIND       PRES   REMARKS
ALBUQUERQUE    CLEAR     36  -6  16 N6        30.06R WCI  31
EL PASO        CLEAR     52   7  16 NE6       30.06R
$$


........................KEY........................
SKY/WX - SKY CONDITION/WEATHER
TMP    - TEMPERATURE IN FAHRENHEIT
DP     - DEW POINT IN FAHRENHEIT
RH     - RELATIVE HUMIDITY IN PERCENT
WIND   - DIRECTION AND SPEED IN MILES PER HOUR (MPH)
VRB    - VARIABLE WIND DIRECTION
PRES   - MEAN SEA LEVEL PRESSURE IN INCHES OF MERCURY
         F - FALLING PRESSURE   R - RISING PRESSURE
         S - STEADY PRESSURE
VSB    - VISIBILITY IN MILES
HX     - HEAT INDEX IN FAHRENHEIT
WCI    - WIND CHILL INDEX IN FAHRENHEIT
TC     - TEMPERATURE IN CELSIUS WHICH IS ALSO KNOWN AS
         TEMPERATURE IN CENTIGRADE
AFB    - AIR FORCE BASE
         LUKE AFB IS LUKE AIR FORCE BASE
         DAVIS-MONTHAN IS DAVIS-MONTHAN AIR FORCE BASE
NAS    - NAVAL AIR STATION
         EL CENTRO NAS IS EL CENTRO NAVAL AIR STATION
N/A    - NOT AVAILABLE





USA.gov is the U.S. government's official web portal to all federal, state and local government web resources and services.